Location: ?????????
(54.7630°N, 39.4991°E)
Time: 07:14:21
(UTC+00:00)

Lacrosse 5 rocket - Pass Details

Date: 14 April 2026
Orbit: 390 x 472 km, 57.0° (Epoch: 12 May)

Event Time Altitude Azimuth Distance (km) Brightness Sun altitude
Rises 19:31:38 0° 271° (W) 2,289 4.9 -21.5°
Reaches altitude 10° 19:33:43 10° 276° (W) 1,430 3.9 -21.7°
Enters shadow 19:36:29 51° 325° (NW) 502 1.4 -21.9°
